www.pogodaiklimat.ru

Погода и климат >> Архив погоды >> Россия >> Мордовия >> Инсар


ПОГОДА в Инсаре

  • Прогноз погоды в Инсаре
  • Монитор погоды в Инсаре

АРХИВ ПОГОДЫ в Инсаре

Время (UTC), дата Ветер
(напр.,м/с)
 
Видим.   Явления Облачность Т
(С)
Тd
(С)
f
(%)
Тe
(С)
Тes
(С)
Комфортность P
(гПа)
Po
(гПа)
Тmin
(С)
Tmax
(С)
R
(мм)
R24
(мм)
S
(см)
06 13.06 СВ 3-6
{8}
50 км ясно +14.3 +2.3 44 +14 +23 1024.0 1000.9
09 13.06 СВ 3-7
{9}
50 км ясно +16.6 +1.1 35 +16 +30 опасность
простуды
1024.4 1001.5
12 13.06 С 4-6
{9}
50 км ясно +18.8 +1.5 31 +19 +26 1024.0 1001.3
15 13.06 С 3-5
{8}
50 км ясно +18.2 +2.5 35 +18 +20 1023.8 1001.0 +19.3
18 13.06 С 1-2
{7}
50 км 3/0
[Ci fib]
+12.5 +0.9 45 +13 +13 1024.3 1001.0
21 13.06 штиль 0
{2}
4000 м 3/0
[Ci fib]
+9.1 +0.6 55 +9 +9 1025.0 1001.5
00 14.06 штиль 0
{3}
10 км 3/0
[Ci fib]
+4.1 +0.1 75 +3 +3 1026.5 1002.5
03 14.06 ЮЗ 1-1
{2}
50 км 10/0
[Ci sp]
+7.0 +1.9 70 +6 +8 1025.7 1002.0 +2.9
06 14.06 З 3-4
{5}
50 км 3/0
[Ci fib]
+17.9 +1.3 33 +18 +27 1023.6 1000.8
09 14.06 ЮЗ 3-6
{9}
50 км 6/0
[Ac trans Ci fib]
+20.4 +1.1 28 +21 +31 комфорт 1020.3 997.7
12 14.06 З 5-9
{10}
50 км 8/0
[Ac trans Ci ing]
+22.1 +0.2 23 +21 +26 комфорт 1017.7 995.4
15 14.06 З 1-3
{9}
50 км 10/0
[Ac und]
+19.7 +3.8 35 +21 +22 комфорт 1015.4 992.9 +22.5
18 14.06 СВ 1-3
{9}
20 км {ливн. осадки} 10/0
[Ac und]
+14.0 +9.0 72 +14 +14 1015.2 992.3
21 14.06 В 2-2
{4}
4000 м в посл. час ливневой дождь 10/4 600 м
[Cb calv Ac und]
+11.9 +10.4 91 +11 +11 1014.2 991.2
00 15.06 В 3-4
{5}
10 км {ливн. осадки} 10/10 600 м
[Sc]
+12.0 +10.4 90 +10 +10 1013.7 990.7
03 15.06 СВ 2-3
{5}
20 км 8/8 600 м
[Sc]
+12.0 +9.8 86 +11 +11 1014.6 991.6 +11.3 0.4
06 15.06 СВ 2-5
{6}
20 км 9/9 600 м
[Sc]
+13.8 +9.7 76 +13 +14 1014.9 992.0
09 15.06 В 2-4
{5}
20 км 9/9 600 м
[Cb calv]
+16.0 +9.7 66 +16 +18 1014.8 992.1
12 15.06 С 1-2
{5}
20 км 8/5 600 м
[Cb calv Ci fib]
+18.0 +8.8 55 +19 +25 1014.0 991.5
15 15.06 З 1-2
{4}
20 км 6/4 600 м
[Sc diur, vesp Ci fib]
+18.8 +8.1 50 +20 +22 1012.9 990.4 +20.4
18 15.06 штиль 0
{4}
20 км 4/0
[Ac trans Ci fib]
+13.8 +7.7 67 +14 +14 1013.4 990.5
21 15.06 СЗ 1-2
{2}
4000 м 6/0
[Ac trans Ci fib]
+10.3 +7.1 81 +10 +10 1013.8 990.6
00 16.06 штиль 0
{2}
10 км 8/8 600 м
[Sc]
+12.0 +8.6 80 +11 +11 1013.2 990.2
03 16.06 СЗ 1-2
{3}
20 км 6/0
[Ac trans Ci fib]
+11.8 +8.4 80 +12 +14 1013.2 990.2 +9.6
06 16.06 С 1-3
{4}
20 км 8/8 600 м
[Sc]
+17.2 +7.7 54 +18 +21 1013.6 991.0
09 16.06 З 2-5
{5}
20 км 8/6 600 м
[Sc Ci fib]
+20.4 +6.2 40 +22 +28 комфорт 1012.9 990.6
12 16.06 СЗ 2-5
{5}
20 км 9/6 600 м
[Sc Ac trans Ci fib]
+21.9 +7.7 40 +23 +26 комфорт 1012.5 990.3
15 16.06 З 2-5
{6}
20 км 9/5 600 м
[Sc Ac trans Ci fib]
+19.8 +10.4 55 +22 +22 комфорт 1012.6 990.2 +21.9
18 16.06 З 1-1
{5}
20 км ясно +15.2 +9.8 70 +16 +16 1013.2 990.5
21 16.06 ЮВ 1-1
{2}
4000 м ясно +10.6 +9.2 91 +10 +10 1014.2 991.1
00 17.06 З 1-1
{2}
10 км ясно +8.9 +7.8 93 +8 +8 1015.1 991.8
03 17.06 штиль 0
{1}
20 км ясно +13.6 +10.2 80 +13 +16 1014.9 992.0 +7.4
06 17.06 СЗ 1-2
{3}
20 км 1/1 600 м
[Cu med, cong]
+21.7 +7.4 40 +23 +34 комфорт 1015.0 992.7
09 17.06 З 2-4
{6}
50 км 6/6 600 м
[Cu med, cong]
+23.4 +5.9 32 +24 +30 комфорт 1014.5 992.3
12 17.06 З 4-6
{8}
50 км 6/6 600 м
[Cu med, cong]
+24.5 +5.1 29 +24 +27 комфорт 1013.5 991.5
15 17.06 СЗ 2-4
{7}
50 км 9/5 600 м
[Cu med, cong Ac cast]
+23.5 +6.4 33 +24 +24 комфорт 1012.7 990.6 +25.9
18 17.06 З 2-3
{5}
20 км 10/5 600 м
[Sc diur, vesp Ac cast Ci sp]
+19.7 +7.8 46 +21 +21 комфорт 1012.9 990.5
21 17.06 З 2-3
{4}
4000 м 3/0
[Ac cast Ci fib]
+13.9 +7.4 65 +13 +13 1013.6 990.7
00 18.06 штиль 0
{3}
10 км 9/9 600 м
[Sc]
+11.8 +8.0 78 +11 +11 1013.5 990.5
03 18.06 штиль 0
{2}
20 км 8/4 600 м
[Sc Ac trans]
+14.2 +9.5 73 +14 +15 1013.5 990.7 +11.1
06 18.06 З 1-3
{4}
50 км 4/0
[Ac trans Ci fib]
+24.2 +10.7 43 +25 +36 комфорт 1012.2 990.2
09 18.06 З 3-6
{7}
50 км 8/5 600 м
[Cb calv Ac trans]
+24.9 +10.4 40 +26 +30 жарко 1011.5 989.5
12 18.06 З 4-8
{10}
50 км 8/6 600 м
[Cb calv Ac trans]
+25.1 +10.4 40 +26 +28 жарко 1010.8 988.9
15 18.06 З 1-4
{8}
50 км 9/5 600 м
[Cb calv Ac trans Ci fib]
+24.2 +13.8 52 +26 +27 жарко 1010.3 988.3 +26.7
18 18.06 Ю 2-3
{8}
20 км гроза без осадков 8/8 600 м
[Cb calv]
+17.8 +12.6 72 +18 +18 1011.5 989.0
21 18.06 штиль 0
{9}
4000 м {гроза, ливн. осадки} 4/0
[Ci fib]
+14.5 +13.2 92 +14 +14 1011.9 989.1
00 19.06 ЮЗ 2-2
{3}
10 км {гроза, ливн. осадки} ясно +11.3 +10.3 94 +10 +10 1012.4 989.4
03 19.06 З 1-2
{2}
20 км ясно +16.7 +14.4 86 +18 +20 1012.6 990.0 +11.2 1
06 19.06 СЗ 2-4
{4}
20 км ясно +22.0 +16.4 71 +26 +37 душно 1012.5 990.2
09 19.06 С 2-5
{7}
50 км 6/4 1000 м
[Cu med, cong Ci fib]
+26.0 +11.9 41 +27 +37 жарко 1012.3 990.4
12 19.06 С 2-4
{7}
50 км 8/6 1000 м
[Cu med, cong Ci fib]
+27.0 +12.0 39 +28 +32 жарко 1012.3 990.5
15 19.06 С 1-6
{6}
50 км 3/3 1000 м
[Cu hum]
+27.2 +12.2 39 +28 +30 жарко 1012.5 990.7 +28.2
18 19.06 штиль 0
{6}
20 км 4/4 600 м
[Sc]
+20.7 +10.2 51 +22 +22 комфорт 1013.7 991.4
21 19.06 З 1-2
{2}
4000 м 3/0
[Ci fib]
+16.1 +11.3 73 +17 +17 1014.8 992.2
00 20.06 штиль 0
{2}
10 км ясно +14.0 +11.5 85 +14 +14 1016.0 993.1
03 20.06 штиль 0
{1}
20 км 4/0
[Ci fib]
+17.4 +13.7 79 +17 +20 1016.5 993.8 +11.8

 

Местоположение метеостанции Инсар (Мордовия, Россия): широта 53.87 долгота 44.38 высота над уровнем моря 193 м.

В архиве по умолчанию представлена погода в Инсаре за последнюю неделю. Архивные данные за месяц целиком и за предыдущие месяцы, начиная с января 2011 года, Вы можете получить, выбрав интересующий диапазон дат из раскрывающегося списка и нажав кнопку "Ввод!".


*Определитесь, кто Вы:
робот инопланетянин человек

Внимание! Время в таблицах - всемирное. Для получения местного времени необходимо прибавить поправку, которая равна 3 ч.

Смотрите также архив погоды в соседних городах и на ближайших метеорологических станциях:

Погода в Саранске (Мордовия, Россия) (64 км)
Погода в Краснослободске (Мордовия, Россия) (74 км)
Погода в Торбеево (Мордовия, Россия) (78 км)
Погода в Каменке (Пензенская область, Россия) (80 км)
Погода в Пачелме (Пензенская область, Россия) (92 км)
Погода в Пензе (Пензенская область, Россия) (94 км)
Погода в Городище (Пензенская область, Россия) (108 км)
Погода в Больших Березниках (Мордовия, Россия) (110 км)
Погода в Темникове (Мордовия, Россия) (113 км)
Погода в Белинском (Пензенская область, Россия) (119 км)

Пояснения к столбцам:

Ветер - указаны скорость ветра в м/с - средняя за 10 мин, порывы в срок и между сроками (в фигурных скобках) и направление, откуда дует ветер: С - северный, СВ - северо-восточный, В - восточный, ЮВ - юго-восточный, Ю - южный, ЮЗ - юго-западный, З - западный, СЗ - северо-западный.
Видимость - горизонтальная дальность видимости в метрах или километрах. При видимости от 1 до 10 км при отсутствии осадков обычно наблюдается дымка, при ухудшении видимости до 1 км и менее - туман. В сухую погоду видимость может ухудшаться дымом, пылью или мглою.
Явления - указаны атмосферные явления, наблюдавшиеся в срок или в последний час перед сроком; фигурными скобками обозначены явления, наблюдавшиеся между сроками (за 1-3 часа до срока); квадратными скобками обозначены град или гололедные отложения с указанием их диаметра в мм.
Облачность - указаны через наклонную черту общая и нижняя облачность в баллах и высота нижней границы облаков в метрах; квадратными скобками обозначены формы облаков: Ci - перистые, Cs - перисто-слоистые, Cc - перисто-кучевые, Ac - высококучевые, As - высокослоистые, Sc - слоисто-кучевые, Ns - слоисто-дождевые, Cu - кучевые, Cb - кучево-дождевые. Подробнее классификацию облаков см. в Атласе облаков (PDF).
T - Температура воздуха - температура, измеренная на высоте 2 м над землей.
Td - Температура точки росы - температура, при понижении до которой содержащийся в воздухе водяной пар достигнет насыщения.
f - Относительная влажность воздуха - влажноcть воздуха, измеренная на высоте 2 м над землей.
Te - Эффективная температура - температура, которую ощущает одетый по сезону человек в тени. Характеристика душности погоды. При расчете учитывается влияние влажности воздуха и скорости ветра на теплоощущения человека.
Tes - Эффективная температура на солнце - температура, которую ощущает человек, с поправкой на солнечный нагрев. Характеристика знойности погоды. Зависит от высоты солнца над горизонтом, облачности и скорости ветра. Ночью, в пасмурную погоду, а также при ветре 12 м/с и более поправка равна нулю.
P - Атмосферное давление - приведенное к уровню моря атмосферное давление.
Po - Атмосферное давление - измеренное на уровне метеостанции атмосферное давление.
Tmin - Минимальная температура - минимум температуры воздуха на высоте 2 м над землей.
Tmax - Максимальная температура - максимум температуры воздуха на высоте 2 м над землей.
R - Количество осадков - Количество выпавших осадков за период времени, мм. При наведении курсора мыши на число - период времени, за который выпало указанное количество осадков.
R24 - Количество осадков - Количество выпавших осадков за 24 часа, мм.
S - Снежный покров - Высота снежного покрова, см. При наведении курсора мыши на число - состояние снежного покрова и степень покрытия местности в баллах.